Pineville, MO

12:20 AM CDT on May 27, 2015 (GMT -0500)
Rogers Municipal-Carter | | Change Station
CLOSE
Current Station
Airport
Location: Rogers,
Elevation: 1358 ft
Nearby Weather Stations

Elev 1358 ft 36.37 °N, 94.11 °W | Updated 23 minutes ago

Partly Cloudy
Partly Cloudy
68 °F
Feels Like 68 °F
N
7
Wind Variable Wind from SSE

Today
High -- | Low -- °F
--% Chance of Precip.
Yesterday
High -- | Low -- °F
Precip. -- in
6:02 AM 8:26 PM
Waxing Gibbous, 64% visible
Pressure 29.99 in
Visibility 10.0 miles
Clouds Few 2700 ft
Mostly Cloudy 4200 ft
Overcast 5000 ft
Dew Point 63 °F
Humidity 84%
Rainfall 0.03 in
Snow Depth Not available.
UV 0 out of 12
Pollen 7.80 out of 12
Air Quality Not available.
Flu Activity Sporadic
METAR KROG 270457Z AUTO 15006KT 10SM FEW027 BKN042 OVC050 20/17 A3002 RMK AO2 SLP156 T02000172 402670161 TSNO

More Conditions Fewer Conditions

Pressure 29.99 in
Visibility 10.0 miles
Clouds Few 2700 ft
Mostly Cloudy 4200 ft
Overcast 5000 ft
Dew Point 63 °F
Humidity 84%
Rainfall 0.03 in
Snow Depth Not available.
UV 0 out of 12
Pollen 7.80 out of 12
Air Quality Not available.
Flu Activity Sporadic
METAR KROG 270457Z AUTO 15006KT 10SM FEW027 BKN042 OVC050 20/17 A3002 RMK AO2 SLP156 T02000172 402670161 TSNO

More Conditions Fewer Conditions

10-Day Weather Forecast

Almanac

Astronomy

May. 27, 2015 Rise Set
Actual Time
Civil Twilight
Nautical Twilight
Astronomical Twilight
Moon
Length of Visible Light
Length of Day
Tomorrow will be .
, % of the Moon is Illuminated

Today's Extremes

State Highs State Lows

Community

WunderPhotos

Upload Photos

1,824,617 photos uploaded!

WunderBlogs® & News

Nearby

Air Quality

  Air Quality AQ Index Pollutant
Not available.

Snow Depth

Station Depth Elevation

Earthquake Activity

City Distance Mag. Time & Date
Minimum magnitude displayed is 2.5.

Coastal Water Temperatures

Place Temperature

Stations

Nearby Weather Stations

Station Location Temp. Windchill Dew Point Humidity Wind Precip. Elev Updated Type